User: anonymous   Login
Location: Abraham Lincoln Continuation High School
(33.9711°N, 117.3662°W)
Time: 06:32:25
(UTC+00:00)
Language:

Cosmos 158 Rocket - Orbit

View from above orbital plane
View from above orbital plane
View from above satellite
View from above satellite

Ground track
Ground track

The orbit data is extracted from the following two-line orbital elements,

1  2802U 67045B   20339.41547238  .00000028  00000-0  15872-4 0  9992
2  2802  74.0118 329.2594 0065047  78.9597 281.8867 14.43787706811711
Epoch (UTC): 04 December 2020 09:58:16
Eccentricity: 0.0065047
inclination: 74.0118°
perigee height: 699 km
apogee height: 792 km
right ascension of ascending node: 329.2594°
argument of perigee: 78.9597°
revolutions per day: 14.43787706
mean anomaly at epoch: 281.8867°
orbit number at epoch: 81171

The dashed part of the orbit path shows where the satellite is in the earth's shadow,  

DLR